Wind_Speed
16 16 17 16 13 10 8 6 6 7 7 8 8 9 11 13 14 14 14 13 12 12 11 10 9 8 7 5 4 4 3 3 3 3 3 2 3 3 3 3 3 4 4
15 15 15 13 10 9 7 6 8 7 7 9 10 11 12 13 14 15 15 14 13 13 12 11 10 9 7 6 5 4 4 4 3 3 3 3 3 3 3 3 3 3 3
14 14 13 11 9 8 7 5 6 7 8 9 10 13 13 13 14 16 15 14 14 14 13 12 10 10 8 7 6 5 5 5 4 4 4 3 3 3 3 3 2 2 2
13 13 12 10 9 8 7 5 5 8 9 9 10 13 13 14 14 17 16 15 15 15 14 12 11 11 10 9 8 7 6 6 6 5 4 3 3 2 2 2 2 2 2
11 11 11 10 9 8 7 6 6 7 8 8 10 13 14 15 15 16 16 15 16 15 15 13 12 12 11 10 9 9 8 7 7 5 4 4 3 2 2 1 1 1 0
10 11 10 10 9 7 6 5 3 6 8 9 11 13 15 15 15 16 15 15 16 16 15 14 13 13 13 12 11 10 10 9 8 7 6 5 4 3 3 2 2 2 2
9 10 10 9 8 6 5 5 3 5 7 9 10 13 15 15 15 16 17 16 17 17 16 15 14 14 13 13 12 12 12 11 10 9 7 7 6 5 5 4 4 4 4
8 9 9 8 8 6 5 4 3 4 6 9 10 11 15 16 16 16 18 18 18 18 18 17 16 15 14 14 14 13 13 13 12 11 10 9 9 8 7 7 7 7 7
7 7 7 7 7 6 4 4 4 4 6 8 9 11 14 16 17 17 18 19 19 19 19 18 16 15 15 15 15 14 14 14 13 12 12 11 11 11 11 11 10 10 10
7 7 7 6 6 6 5 4 4 4 5 8 8 11 13 15 17 17 18 19 20 20 20 18 17 16 16 16 16 15 15 15 15 15 14 14 14 14 14 14 13 13 13
8 7 7 6 5 5 5 4 4 5 6 7 9 11 12 14 16 18 18 19 21 21 21 19 18 17 17 17 17 17 17 17 17 17 17 16 16 17 17 17 17 17 16
8 8 6 5 5 5 5 5 4 5 6 7 8 10 12 14 15 17 18 18 19 20 20 20 19 18 18 18 18 19 19 19 19 19 19 19 19 19 19 19 20 20 20
9 9 7 7 6 6 6 6 6 6 6 7 8 9 11 13 14 16 17 18 19 20 20 20 20 20 20 20 20 20 20 20 20 21 21 21 22 22 22 22 22 23 23
12 11 9 8 7 7 8 8 8 8 8 8 9 9 10 12 14 15 16 17 18 19 20 20 20 20 20 20 21 21 20 21 21 22 23 24 24 24 24 25 25 25 25
13 12 12 11 9 9 9 9 9 8 9 9 10 11 11 12 14 15 16 16 17 18 19 20 20 20 20 21 21 21 21 22 22 23 23 24 25 25 26 26 27 27 28
15 15 14 13 12 11 11 11 11 10 10 10 11 12 11 12 13 15 16 17 17 18 20 21 21 20 20 21 22 22 23 23 23 23 23 24 25 26 26 27 29 30 30
19 16 16 16 15 13 14 13 12 12 12 12 12 12 12 12 13 14 16 17 18 19 19 19 20 20 21 22 22 23 24 25 26 26 25 26 26 27 28 29 30 31 31
20 19 18 18 17 16 16 15 14 14 14 13 14 14 14 14 14 15 17 18 19 19 19 20 20 22 23 23 24 25 26 26 26 27 27 27 28 29 30 31 32 33 34
24 22 21 20 19 19 18 17 17 16 16 16 16 16 16 16 16 17 18 18 19 20 20 21 22 23 24 25 26 26 27 27 28 28 29 30 30 31 32 33 35 36 37
26 24 22 22 20 19 19 19 19 19 18 18 18 17 17 17 17 18 19 19 20 21 22 23 24 24 24 26 27 28 29 29 30 30 31 32 33 34 35 36 38 39 39
27 26 26 24 23 22 22 22 21 20 20 19 19 18 18 19 20 20 20 21 21 22 23 24 24 25 26 27 27 29 30 32 32 32 34 34 35 36 37 38 39 39 39
29 29 27 25 24 23 23 22 22 22 21 19 18 18 20 19 19 21 22 22 23 23 24 25 26 26 28 29 30 31 32 33 34 35 36 37 38 39 39 39 40 41 41
29 28 26 25 25 24 23 23 22 22 21 21 21 22 21 22 23 22 22 22 24 24 25 27 28 29 30 31 32 32 32 33 34 36 37 38 38 39 39 39 40 43 44
27 26 25 24 24 24 24 24 24 23 22 23 23 23 23 23 23 25 25 25 25 26 28 29 30 31 31 31 32 32 33 34 35 36 38 38 39 39 40 42 44 45 47
24 23 23 22 21 21 22 22 22 22 22 22 22 23 24 24 25 26 26 26 27 28 28 30 31 31 32 32 33 34 34 35 36 38 39 39 41 42 44 45 46 48 49
22 23 23 22 21 21 21 21 22 23 23 23 23 23 24 25 26 27 27 28 29 30 29 30 31 31 32 32 33 34 35 37 38 39 40 41 43 45 46 48 49 51 52
Wind_Direction
331 332 331 330 328 322 313 296 261 246 244 225 210 202 200 200 198 196 197 198 198 198 199 199 198 199 202 204 206 206 199 178 158 141 131 126 117 112 105 105 100 93 85
333 333 335 332 330 325 315 288 253 241 230 222 212 205 203 203 203 199 196 196 197 199 199 200 199 200 204 206 202 198 195 187 174 159 145 135 126 119 110 110 106 94 82
332 334 339 339 338 330 320 292 250 234 226 219 205 196 197 202 203 200 198 198 200 201 201 204 203 204 209 209 204 199 197 191 180 168 155 143 129 123 118 113 105 85 72
329 334 336 336 335 329 322 299 251 229 220 212 201 194 197 201 201 200 202 203 203 204 205 207 208 208 211 212 212 208 202 195 189 182 172 162 154 145 129 115 110 90 68
328 335 337 336 330 321 318 303 248 221 213 216 210 203 202 203 203 201 201 205 205 206 205 207 213 216 217 217 216 214 210 205 200 198 192 187 188 187 180 167 154 124 22
331 335 337 337 337 328 322 315 249 219 219 212 211 210 207 205 205 203 203 206 206 206 206 210 215 218 221 222 220 218 215 212 210 209 210 214 220 224 226 230 233 243 259
332 335 334 334 339 332 322 317 283 228 214 210 210 208 208 207 207 207 207 208 207 207 209 211 215 218 220 222 223 224 223 222 220 221 224 228 234 240 247 254 260 265 271
334 331 331 334 337 331 318 310 284 239 216 211 210 209 208 208 208 208 208 208 209 210 213 217 220 224 224 225 227 229 230 229 231 232 235 237 241 246 252 260 268 273 277
322 325 328 330 334 336 323 304 271 248 227 216 211 209 206 208 210 209 210 211 212 214 218 220 224 224 226 227 231 233 234 234 237 241 244 247 251 256 261 266 270 273 276
312 313 318 321 327 331 325 305 274 247 234 222 218 213 210 212 213 213 215 216 215 217 219 221 224 227 228 231 234 237 239 240 243 247 252 255 260 264 266 268 271 273 275
300 302 305 307 320 326 323 305 280 252 241 235 229 223 218 217 218 217 219 219 219 219 220 220 224 229 232 235 238 242 244 245 247 250 255 259 263 267 269 270 271 273 274
290 291 302 304 307 314 316 304 280 263 254 244 234 228 223 222 221 221 222 222 221 220 222 224 227 233 238 241 243 245 246 249 251 254 257 261 265 268 270 272 274 275 275
285 286 299 297 295 298 298 293 281 269 259 247 236 232 227 225 223 223 224 226 226 222 222 226 232 237 242 245 247 248 250 252 255 258 260 263 266 270 272 274 275 277 278
273 278 288 295 294 291 286 284 277 271 264 251 244 241 237 235 231 228 226 227 229 227 227 230 237 240 243 246 247 248 251 253 257 260 262 263 267 270 272 273 274 276 279
277 280 289 289 289 289 284 281 276 271 266 258 252 245 242 243 239 234 231 230 232 233 231 234 240 242 244 246 246 248 251 255 258 262 264 265 267 269 272 274 275 276 278
278 278 282 284 284 282 283 278 272 267 263 260 253 246 244 245 243 236 234 235 237 238 240 241 243 244 244 246 247 250 254 256 260 263 265 266 268 270 273 275 277 278 279
280 276 280 281 277 274 271 272 270 267 266 262 258 253 251 250 248 241 241 241 241 242 243 244 244 244 246 250 252 255 257 260 262 266 267 268 270 272 275 277 278 279 280
277 275 277 277 274 271 267 265 265 264 264 264 263 258 257 255 254 252 249 250 247 245 245 248 249 250 253 257 258 260 263 265 267 269 270 270 271 273 275 278 279 280 281
275 275 274 270 268 267 265 262 264 264 264 264 265 262 261 261 260 257 254 256 250 250 252 254 256 258 260 262 262 263 266 267 269 271 273 273 273 275 276 278 280 281 281
274 273 273 271 269 266 264 263 267 263 262 264 264 260 258 259 260 258 259 259 257 256 258 258 259 261 263 264 265 264 266 268 271 273 275 277 278 279 280 280 281 281 281
271 271 271 268 267 267 266 264 264 262 260 262 261 260 262 260 261 260 260 259 258 258 260 261 263 264 266 268 268 269 271 273 274 275 276 278 279 280 280 280 281 282 282
269 271 268 264 264 264 263 263 263 262 258 259 261 263 265 266 267 266 263 260 261 259 262 264 266 266 268 271 272 273 274 275 275 277 277 279 280 281 280 281 281 281 281
266 268 266 261 260 260 260 260 262 260 257 260 263 265 269 270 268 268 266 267 268 268 269 270 271 272 272 272 274 273 275 275 277 278 279 279 280 281 282 282 282 283 284
265 265 263 260 258 257 256 258 261 260 260 260 262 265 270 274 274 272 268 269 272 274 275 275 275 275 275 275 275 276 277 279 280 281 282 282 282 282 283 284 284 285 285
260 259 257 256 257 258 257 256 256 258 261 262 263 267 271 274 276 275 271 273 276 276 277 277 277 277 275 277 279 279 280 282 284 284 284 285 285 287 287 287 287 287 287
257 256 256 257 257 257 257 256 257 259 261 262 265 268 271 274 276 276 275 276 276 277 277 276 276 277 279 281 282 283 283 283 285 286 286 287 287 288 288 288 288 288 288
Height
5866 5862 5859 5855 5853 5851 5849 5848 5848 5849 5851 5853 5855 5857 5859 5862 5865 5868 5871 5874 5876 5878 5880 5882 5884 5885 5886 5886 5886 5887 5887 5887 5887 5887 5887 5887 5887 5886 5886 5885 5885 5885 5884
5863 5861 5858 5855 5852 5850 5849 5848 5848 5848 5849 5851 5853 5855 5858 5861 5864 5867 5869 5872 5875 5877 5879 5881 5882 5884 5885 5886 5886 5886 5887 5887 5887 5887 5887 5887 5888 5887 5886 5886 5885 5885 5885
5862 5859 5856 5853 5851 5850 5848 5847 5846 5847 5848 5850 5851 5854 5856 5859 5862 5865 5868 5871 5873 5875 5877 5879 5881 5882 5884 5885 5885 5886 5886 5887 5887 5887 5888 5887 5887 5887 5887 5886 5886 5886 5885
5860 5857 5855 5852 5850 5849 5847 5845 5845 5845 5847 5848 5850 5853 5855 5858 5861 5864 5866 5869 5871 5874 5876 5877 5879 5881 5882 5883 5884 5885 5886 5886 5887 5887 5887 5887 5887 5887 5887 5887 5886 5886 5885
5858 5856 5853 5851 5849 5847 5845 5844 5843 5843 5844 5847 5849 5851 5854 5856 5859 5862 5864 5867 5869 5872 5874 5876 5877 5879 5881 5882 5883 5884 5885 5885 5886 5886 5886 5887 5887 5887 5887 5887 5887 5886 5886
5856 5854 5852 5850 5847 5845 5844 5843 5841 5843 5845 5846 5847 5849 5852 5854 5857 5860 5862 5865 5867 5870 5872 5874 5875 5877 5879 5880 5881 5882 5883 5884 5885 5885 5886 5886 5886 5886 5886 5886 5886 5886 5885
5853 5852 5850 5849 5847 5845 5844 5843 5842 5843 5844 5845 5846 5848 5850 5852 5855 5857 5860 5862 5865 5867 5870 5872 5873 5875 5876 5878 5879 5881 5881 5882 5883 5884 5884 5885 5885 5885 5885 5885 5885 5884 5884
5851 5850 5849 5847 5846 5844 5843 5842 5842 5842 5843 5844 5845 5846 5848 5850 5853 5855 5857 5860 5862 5864 5867 5869 5871 5873 5874 5876 5877 5878 5879 5880 5881 5881 5882 5883 5883 5883 5883 5883 5883 5882 5882
5849 5848 5847 5846 5844 5843 5842 5842 5841 5841 5842 5842 5843 5844 5846 5848 5850 5852 5855 5857 5859 5862 5864 5866 5869 5870 5871 5873 5874 5875 5877 5877 5878 5879 5879 5880 5880 5881 5881 5881 5881 5880 5879
5847 5846 5846 5845 5843 5842 5841 5841 5840 5840 5840 5840 5842 5843 5845 5846 5848 5850 5851 5853 5856 5858 5861 5863 5865 5867 5869 5870 5871 5872 5873 5874 5875 5876 5876 5877 5877 5877 5877 5877 5877 5877 5876
5845 5844 5844 5843 5842 5841 5840 5839 5839 5839 5839 5839 5840 5841 5842 5844 5845 5846 5848 5850 5852 5855 5857 5860 5862 5864 5865 5867 5868 5869 5870 5870 5871 5872 5872 5873 5873 5873 5873 5873 5872 5872 5872
5843 5842 5841 5841 5840 5839 5839 5838 5838 5838 5838 5838 5839 5839 5840 5841 5842 5844 5845 5847 5849 5851 5854 5856 5858 5860 5861 5863 5864 5864 5865 5866 5867 5867 5868 5868 5868 5868 5868 5867 5867 5866 5866
5840 5839 5839 5839 5838 5838 5837 5837 5837 5836 5836 5836 5837 5838 5838 5839 5840 5841 5842 5844 5846 5848 5850 5852 5854 5855 5856 5858 5859 5860 5861 5861 5862 5862 5862 5863 5863 5862 5862 5862 5861 5860 5859
5837 5837 5836 5836 5836 5836 5836 5835 5835 5834 5834 5834 5835 5836 5836 5837 5837 5838 5839 5841 5843 5844 5846 5848 5849 5850 5851 5852 5853 5854 5855 5856 5856 5856 5857 5857 5856 5856 5856 5855 5854 5853 5852
5834 5833 5834 5834 5833 5833 5833 5833 5833 5832 5832 5832 5833 5833 5834 5834 5835 5836 5837 5838 5840 5841 5842 5843 5844 5845 5846 5846 5847 5848 5849 5850 5850 5850 5850 5850 5850 5850 5849 5848 5847 5846 5845
5829 5829 5830 5830 5829 5829 5829 5830 5830 5830 5830 5830 5830 5830 5831 5831 5832 5832 5834 5835 5836 5837 5838 5839 5840 5840 5841 5841 5842 5843 5844 5844 5844 5844 5844 5844 5843 5842 5842 5841 5840 5839 5837
5824 5825 5825 5825 5825 5825 5826 5826 5827 5827 5827 5827 5827 5828 5828 5828 5828 5828 5830 5831 5832 5833 5834 5835 5836 5836 5837 5837 5837 5838 5838 5838 5838 5838 5837 5837 5836 5835 5834 5833 5832 5830 5828
5818 5819 5820 5820 5820 5821 5821 5822 5823 5823 5824 5824 5824 5824 5825 5825 5825 5825 5826 5827 5828 5829 5829 5830 5830 5831 5831 5832 5832 5832 5832 5832 5831 5831 5831 5830 5828 5827 5826 5824 5823 5821 5819
5812 5813 5813 5814 5814 5815 5816 5816 5818 5819 5819 5820 5820 5820 5821 5821 5821 5821 5822 5822 5822 5823 5824 5825 5825 5825 5826 5825 5825 5825 5825 5825 5824 5824 5823 5821 5820 5819 5817 5815 5813 5811 5809
5806 5806 5806 5807 5808 5809 5810 5811 5812 5813 5814 5815 5815 5815 5816 5816 5816 5816 5816 5816 5817 5818 5818 5819 5819 5819 5819 5819 5818 5818 5818 5817 5816 5815 5814 5812 5811 5809 5807 5805 5803 5800 5798
5799 5798 5799 5800 5802 5803 5805 5806 5806 5807 5808 5809 5809 5810 5810 5811 5810 5810 5811 5811 5811 5812 5812 5812 5812 5812 5812 5812 5811 5810 5810 5809 5807 5806 5805 5803 5801 5798 5796 5794 5791 5789 5786
5792 5792 5793 5793 5795 5797 5798 5799 5800 5801 5801 5802 5803 5804 5804 5804 5804 5805 5805 5805 5805 5805 5805 5805 5805 5805 5804 5804 5803 5802 5801 5799 5798 5796 5794 5792 5790 5787 5785 5782 5780 5777 5774
5785 5785 5786 5787 5788 5790 5792 5793 5794 5795 5795 5796 5797 5798 5798 5798 5799 5798 5798 5799 5799 5799 5798 5798 5797 5797 5796 5795 5794 5792 5791 5789 5787 5786 5784 5781 5778 5776 5773 5770 5767 5764 5761
5778 5778 5778 5780 5781 5783 5785 5786 5788 5789 5790 5790 5791 5792 5792 5792 5792 5792 5791 5792 5792 5791 5791 5790 5789 5788 5787 5785 5784 5782 5781 5778 5777 5775 5772 5770 5767 5764 5761 5758 5754 5751 5747
5771 5772 5772 5773 5775 5776 5777 5779 5781 5783 5784 5784 5785 5785 5785 5785 5785 5784 5784 5784 5784 5784 5783 5782 5781 5780 5778 5776 5775 5772 5770 5769 5766 5764 5761 5758 5755 5752 5748 5744 5740 5736 5732
5764 5765 5766 5767 5769 5770 5772 5773 5775 5776 5778 5778 5779 5779 5779 5779 5778 5778 5777 5777 5777 5776 5775 5774 5773 5771 5769 5767 5765 5763 5761 5758 5756 5753 5749 5745 5742 5738 5734 5729 5725 5720 5716